W4SNA-2 Weather Reports


Display with metric or nautical units.
time (UTC)temp
F
wind
direction
speed
MPH
gust
MPH
rain 1hr
in
rain 24hr
in
rain mn
in
humidity
%
barometer
mb
20260503032752 45 319 1.0 9.0 0.00 0.00 0.00 59 1015.4
20260503032252 45 319 1.0 9.0 0.00 0.00 0.00 59 1016.3
20260503031752 45 309 1.0 6.0 0.00 0.00 0.00 59 1016.3
20260503031252 45 327 1.0 12.0 0.00 0.00 0.00 59 1016.3
20260503030752 45 0 0.0 12.0 0.00 0.00 0.00 60 1016.2
20260503030253 45 337 2.0 6.0 0.00 0.00 0.00 59 1016.2
20260503025349 45 317 3.0 13.0 0.00 0.00 0.00 59 1016.1
20260503024849 45 342 3.0 11.0 0.00 0.00 0.00 60 1016.1
20260503024349 46 343 3.0 11.0 0.00 0.00 0.00 60 1016.1
20260503023851 46 328 4.0 11.0 0.00 0.00 0.00 60 1016.0
20260503023349 45 329 4.0 11.0 0.00 0.00 0.00 59 1016.1
20260503022849 46 316 1.0 8.0 0.00 0.00 0.00 59 1016.0
20260503022351 46 332 1.0 8.0 0.00 0.00 0.00 58 1016.1
20260503021838 46 335 1.0 10.0 0.00 0.00 0.00 59 1016.1
20260503021338 46 326 2.0 12.0 0.00 0.00 0.00 59 1016.0
20260503020837 46 323 4.0 12.0 0.00 0.00 0.00 58 1015.8
20260503020337 46 297 3.0 11.0 0.00 0.00 0.00 58 1015.8
20260503015839 46 337 3.0 11.0 0.00 0.00 0.00 59 1015.7
20260503015338 46 315 3.0 11.0 0.00 0.00 0.00 59 1015.6
20260503014837 46 344 4.0 11.0 0.00 0.00 0.00 59 1015.6
20260503014337 46 332 1.0 11.0 0.00 0.00 0.00 58 1015.6
20260503013837 46 332 3.0 13.0 0.00 0.00 0.00 58 1015.6
20260503013337 47 335 2.0 13.0 0.00 0.00 0.00 58 1015.5
20260503012837 47 322 2.0 19.0 0.00 0.00 0.00 58 1015.4
20260503012338 47 350 5.0 19.0 0.00 0.00 0.00 56 1015.3
20260503011837 47 332 6.0 16.0 0.00 0.00 0.00 55 1015.2
20260503011336 47 324 6.0 15.0 0.00 0.00 0.00 57 1015.2
20260503010838 47 319 2.0 8.0 0.00 0.00 0.00 57 1015.1
20260503010338 48 324 2.0 11.0 0.00 0.00 0.00 56 1015.1
20260503005837 48 324 4.0 11.0 0.00 0.00 0.00 55 1015.0
20260503005337 48 324 3.0 10.0 0.00 0.00 0.00 55 1015.0
20260503004837 48 329 4.0 10.0 0.00 0.00 0.00 54 1015.0
20260503004337 49 10 1.0 12.0 0.00 0.00 0.00 55 1014.8
20260503003836 49 319 4.0 13.0 0.00 0.00 0.00 53 1014.8
20260503003337 49 315 5.0 13.0 0.00 0.00 0.00 53 1014.7
20260503002837 49 324 3.0 10.0 0.00 0.00 0.00 53 1014.6
20260503002340 50 322 2.0 10.0 0.00 0.00 0.00 53 1014.5
20260503001839 50 340 3.0 12.0 0.00 0.00 0.00 53 1014.4
20260503001338 50 338 4.0 12.0 0.00 0.00 0.00 52 1014.3
20260503000837 50 352 2.0 9.0 0.00 0.00 0.00 53 1014.3
20260503000337 51 0 0.0 8.0 0.00 0.00 0.00 53 1014.2
20260502235841 51 0 0.0 8.0 0.00 0.00 0.00 52 1014.1
20260502235341 52 6 2.0 11.0 0.00 0.00 0.00 52 1014.1
20260502234836 52 317 2.0 11.0 0.00 0.00 0.00 51 1014.0
20260502234338 52 0 0.0 10.0 0.00 0.00 0.00 51 1013.9
20260502233841 52 328 1.0 10.0 0.00 0.00 0.00 50 1013.8
20260502233338 52 307 3.0 10.0 0.00 0.00 0.00 50 1013.8
20260502232838 52 306 1.0 10.0 0.00 0.00 0.00 51 1013.8
20260502232338 52 319 1.0 8.0 0.00 0.00 0.00 52 1013.7
20260502231836 52 340 2.0 10.0 0.00 0.00 0.00 51 1013.6
20260502231338 52 316 1.0 14.0 0.00 0.00 0.00 51 1013.5
20260502230837 52 321 1.0 16.0 0.00 0.00 0.00 51 1013.5
20260502230337 53 344 3.0 16.0 0.00 0.00 0.00 50 1013.6
20260502225836 53 332 4.0 15.0 0.00 0.00 0.00 49 1013.5
20260502225336 53 319 3.0 11.0 0.00 0.00 0.00 49 1013.5
20260502224837 53 0 0.0 11.0 0.00 0.00 0.00 49 1013.5
20260502224336 54 331 3.0 11.0 0.00 0.00 0.00 48 1013.5
20260502223836 54 0 0.0 8.0 0.00 0.00 0.00 50 1013.5
20260502223336 54 329 1.0 10.0 0.00 0.00 0.00 49 1013.4
20260502222837 54 0 0.0 10.0 0.00 0.00 0.00 48 1013.4
20260502222336 55 0 0.0 9.0 0.00 0.00 0.00 50 1013.2
20260502221836 55 295 1.0 9.0 0.00 0.00 0.00 49 1013.1
20260502221156 55 0 0.0 8.0 0.00 0.00 0.00 52 1013.0
20260502220656 55 0 0.0 5.0 0.00 0.00 0.00 54 1012.9
20260502220157 56 0 0.0 9.0 0.00 0.00 0.00 57 1012.9
20260502215656 56 0 0.0 9.0 0.00 0.00 0.00 56 1012.9
20260502215156 56 0 0.0 0.0 0.00 0.00 0.00 55 1012.7
20260502214656 56 0 0.0 0.0 0.00 0.00 0.00 57 1012.7
20260502214156 56 0 0.0 0.0 0.00 0.00 0.00 56 1012.6
20260502213656 56 0 0.0 0.0 0.00 0.00 0.00 55 1012.6
20260502213156 56 0 0.0 0.0 0.00 0.00 0.00 57 1012.6
20260502212656 56 0 0.0 0.0 0.00 0.00 0.00 56 1012.4
20260502212156 56 0 0.0 0.0 0.00 0.00 0.00 55 1012.4
20260502211656 56 0 0.0 6.0 0.00 0.00 0.00 52 1012.3
20260502211156 56 0 0.0 9.0 0.00 0.00 0.00 48 1012.3
20260502210656 56 0 0.0 9.0 0.00 0.00 0.00 49 1012.2
20260502210156 56 0 0.0 10.0 0.00 0.00 0.00 47 1012.2
20260502205656 56 7 2.0 10.0 0.00 0.00 0.00 46 1012.2
20260502205156 56 0 0.0 5.0 0.00 0.00 0.00 49 1012.2
20260502204656 57 0 0.0 7.0 0.00 0.00 0.00 49 1012.1
20260502204156 58 9 1.0 7.0 0.00 0.00 0.00 46 1012.1
20260502202712 59 0 0.0 5.0 0.00 0.00 0.00 44 1012.1
20260502202212 58 348 1.0 5.0 0.00 0.00 0.00 47 1012.3
20260502201712 58 0 0.0 4.0 0.00 0.00 0.00 50 1012.2
20260502201212 57 0 0.0 4.0 0.00 0.00 0.00 50 1012.4
20260502200712 56 0 0.0 4.0 0.00 0.00 0.00 52 1012.5
20260502200212 56 0 0.0 4.0 0.00 0.00 0.00 49 1012.6
20260502195712 56 0 0.0 4.0 0.00 0.00 0.00 49 1012.6
20260502195212 55 0 0.0 5.0 0.00 0.00 0.00 51 1012.7
20260502194715 55 0 0.0 8.0 0.00 0.00 0.00 50 1012.8
20260502194212 56 348 1.0 8.0 0.00 0.00 0.00 47 1012.9
20260502193712 57 0 0.0 4.0 0.00 0.00 0.00 48 1013.0
20260502193212 57 0 0.0 5.0 0.00 0.00 0.00 48 1013.1
20260502192712 56 348 1.0 6.0 0.00 0.00 0.00 51 1013.2
20260502192212 56 348 1.0 6.0 0.00 0.00 0.00 47 1013.3
20260502191714 55 0 0.0 5.0 0.00 0.00 0.00 48 1013.2
20260502191212 55 348 2.0 6.0 0.00 0.00 0.00 48 1013.2
20260502190744 55 348 1.0 6.0 0.00 0.00 0.00 51 1013.3
20260502190712 55 348 1.0 6.0 0.00 0.00 0.00 51 1013.3
20260502190212 55 0 0.0 3.0 0.00 0.00 0.00 52 1013.2
20260502185712 55 0 0.0 2.0 0.00 0.00 0.00 50 1013.2
20260502185212 55 0 0.0 4.0 0.00 0.00 0.00 50 1013.3
20260502184712 55 0 0.0 4.0 0.00 0.00 0.00 47 1013.4
20260502184212 55 0 0.0 4.0 0.00 0.00 0.00 49 1013.4
20260502183712 54 0 0.0 5.0 0.00 0.00 0.00 50 1013.4
20260502183212 54 348 1.0 9.0 0.00 0.00 0.00 50 1013.5
20260502182712 54 0 0.0 9.0 0.00 0.00 0.00 53 1013.5
20260502182212 54 0 0.0 6.0 0.00 0.00 0.00 55 1013.6
20260502181713 53 0 0.0 12.0 0.00 0.00 0.00 53 1013.6
20260502181212 54 334 4.0 12.0 0.00 0.00 0.00 50 1013.7
20260502170348 50 0 0.0 0.0 0.00 0.00 0.00 58 1014.6
20260502164348 49 0 0.0 5.0 0.00 0.00 0.00 58 1015.0
20260502163848 49 0 0.0 0.0 0.00 0.00 0.00 59 1015.3
20260502163348 49 0 0.0 0.0 0.00 0.00 0.00 58 1015.3
20260502162848 49 0 0.0 0.0 0.00 0.00 0.00 58 1015.3
20260502162348 49 0 0.0 0.0 0.00 0.00 0.00 61 1015.2
20260502161848 48 0 0.0 0.0 0.00 0.00 0.00 62 1015.1
20260502161348 48 0 0.0 3.0 0.00 0.00 0.00 60 1015.1
20260502160848 47 0 0.0 3.0 0.00 0.00 0.00 62 1015.2
20260502160349 47 0 0.0 0.0 0.00 0.00 0.00 62 1015.3
20260502152037 46 0 0.0 3.0 0.00 0.00 0.00 65 1015.5
20260502151537 46 0 0.0 3.0 0.00 0.00 0.00 63 1015.6
20260502151037 46 0 0.0 6.0 0.00 0.00 0.00 65 1015.3
20260502150537 46 0 0.0 8.0 0.00 0.00 0.00 63 1015.2
20260502130334 46 340 4.0 11.0 0.00 0.00 0.00 70 1014.4
20260502123249 46 353 5.0 10.0 0.00 0.00 0.00 76 1014.0
20260502122748 46 347 4.0 15.0 0.00 0.00 0.00 76 1013.9
20260502122248 46 341 3.0 15.0 0.00 0.00 0.00 76 1014.0
20260502121750 46 342 5.0 12.0 0.00 0.00 0.00 76 1014.0
20260502121249 46 340 6.0 11.0 0.00 0.00 0.00 77 1013.9
20260502120748 46 341 3.0 11.0 0.00 0.00 0.00 78 1014.1
20260502120249 46 341 1.0 10.0 0.00 0.00 0.00 78 1014.2
20260502115749 46 0 0.0 9.0 0.00 0.00 0.00 78 1014.2
20260502115248 46 341 1.0 9.0 0.00 0.00 0.00 77 1014.2
20260502114748 46 341 1.0 5.0 0.00 0.00 0.00 76 1014.3
20260502114248 46 0 0.0 9.0 0.00 0.00 0.00 75 1014.2
20260502113748 46 0 0.0 9.0 0.00 0.00 0.00 74 1014.1
20260502113248 46 0 0.0 10.0 0.00 0.00 0.00 74 1014.1
20260502112748 46 340 1.0 10.0 0.00 0.00 0.00 75 1014.0
20260502112248 46 0 0.0 10.0 0.00 0.00 0.00 76 1014.0
20260502111748 46 340 1.0 9.0 0.00 0.00 0.00 76 1014.0
20260502111248 46 340 1.0 8.0 0.00 0.00 0.00 77 1013.9
20260502110748 46 340 2.0 8.0 0.00 0.00 0.00 78 1013.8
20260502110250 46 0 0.0 0.0 0.00 0.00 0.00 79 1013.9
20260502105511 46 340 2.0 9.0 0.00 0.00 0.00 79 1013.8
20260502105010 46 340 3.0 8.0 0.00 0.00 0.00 80 1013.8
20260502104509 46 340 2.0 5.0 0.00 0.00 0.00 80 1013.8
20260502104009 46 0 0.0 4.0 0.00 0.00 0.00 80 1013.8
20260502103514 46 0 0.0 0.0 0.00 0.00 0.00 81 1013.7
20260502102438 46 0 0.0 6.0 0.00 0.00 0.00 80 1013.7
20260502101938 46 0 0.0 10.0 0.00 0.00 0.00 80 1013.9
20260502101438 46 340 2.0 10.0 0.00 0.00 0.00 80 1013.9
20260502100938 46 340 3.0 9.0 0.00 0.00 0.00 80 1013.9
20260502100438 46 340 3.0 9.0 0.00 0.00 0.00 79 1013.8
20260502091121 47 344 4.0 17.0 0.00 0.00 0.00 80 1013.8
20260502090621 47 354 8.0 18.0 0.00 0.00 0.00 80 1013.8
20260502090121 47 343 12.0 19.0 0.00 0.00 0.00 79 1013.6
20260502071121 49 325 5.0 9.0 0.00 0.00 0.00 81 1013.0
20260502070621 49 333 6.0 10.0 0.00 0.00 0.00 81 1013.0
20260502070121 49 330 5.0 10.0 0.00 0.00 0.00 81 1013.0
20260502065623 49 339 5.0 9.0 0.00 0.00 0.00 82 1013.1
20260502065153 49 334 5.0 10.0 0.00 0.00 0.00 83 1013.2
20260502065121 49 334 5.0 10.0 0.00 0.00 0.00 83 1013.2
20260502064621 49 334 6.0 10.0 0.00 0.00 0.00 82 1013.3
20260502064121 49 337 5.0 9.0 0.00 0.00 0.00 81 1013.2
20260502063621 49 323 5.0 9.0 0.00 0.00 0.00 82 1013.3
20260502063121 49 339 5.0 12.0 0.00 0.00 0.00 82 1013.4
20260502062621 49 334 6.0 12.0 0.00 0.00 0.00 82 1013.5
20260502062121 49 327 5.0 11.0 0.00 0.00 0.00 82 1013.5
20260502061621 50 344 6.0 12.0 0.00 0.00 0.00 83 1013.6
20260502061121 50 337 6.0 12.0 0.00 0.00 0.00 83 1013.6
20260502060621 50 331 6.0 11.0 0.00 0.00 0.00 83 1013.6
20260502060121 50 338 6.0 11.0 0.00 0.00 0.00 84 1013.6
20260502055621 50 336 7.0 11.0 0.00 0.00 0.00 85 1013.6
20260502055121 50 334 5.0 11.0 0.00 0.00 0.00 86 1013.6
20260502054622 50 345 6.0 11.0 0.00 0.00 0.00 87 1013.6
20260502054121 50 350 6.0 10.0 0.00 0.00 0.00 88 1013.6
20260502053621 50 333 6.0 9.0 0.00 0.00 0.00 89 1013.6
20260502053121 50 335 5.0 10.0 0.00 0.00 0.00 89 1013.6
20260502052621 50 322 6.0 10.0 0.00 0.00 0.00 90 1013.7
20260502052121 49 325 5.0 9.0 0.00 0.00 0.00 91 1013.7
20260502051622 49 328 5.0 8.0 0.00 0.00 0.00 91 1013.6
20260502051121 49 332 4.0 8.0 0.00 0.00 0.00 91 1013.7
20260502050621 49 333 3.0 8.0 0.00 0.00 0.00 91 1013.7
20260502050122 49 335 4.0 8.0 0.00 0.00 0.00 91 1013.7
20260502045621 49 338 4.0 8.0 0.00 0.00 0.00 90 1013.8
20260502045121 50 336 3.0 5.0 0.00 0.00 0.00 88 1013.9
20260502044621 50 0 0.0 4.0 0.00 0.00 0.00 87 1014.0
20260502044121 51 0 0.0 4.0 0.00 0.00 0.00 86 1014.0
20260502043621 52 0 0.0 5.0 0.00 0.00 0.00 85 1013.9
20260502043121 52 0 0.0 5.0 0.00 0.00 0.00 85 1014.1
20260502042214 51 0 0.0 6.0 0.00 0.00 0.00 86 1013.8
20260502041714 51 0 0.0 6.0 0.00 0.00 0.00 86 1013.8
20260502041214 51 0 0.0 6.0 0.00 0.00 0.00 86 1013.7
20260502040714 51 217 1.0 6.0 0.00 0.00 0.00 86 1013.8
20260502040214 51 0 0.0 5.0 0.00 0.00 0.00 86 1013.8
20260502035714 51 0 0.0 7.0 0.00 0.00 0.00 86 1013.7
20260502035214 51 203 1.0 7.0 0.00 0.00 0.00 85 1013.8
20260502034714 51 204 2.0 9.0 0.00 0.00 0.00 85 1013.9
20260502034214 51 204 1.0 9.0 0.00 0.00 0.00 85 1013.9
20260502033714 51 199 1.0 8.0 0.00 0.00 0.00 85 1013.8
20260502033214 51 201 3.0 9.0 0.00 0.00 0.00 86 1014.0